Regional Weather Roundup
Issued by NWS Goodland, KS

Home | Current Version | Previous Version | Text Only | Print | Product List | Glossary On
Versions: 1 2 3 4 5 6 7 8 9 10 11 12 13 14 15 16 17 18 19 20 21 22 23 24 25 26 27 28 29 30 31 32 33 34 35 36 37 38 39 40 41 42 43 44 45 46 47 48 49 50
000
ASUS43 KGLD 070008
RWRGLD

GOODLAND FORECAST AREA HOURLY WEATHER ROUNDUP
NATIONAL WEATHER SERVICE GOODLAND KS
500 PM MST FRI MAR 06 2015

...OFFICIAL OBSERVATIONS...

CITY           SKY/WX    TMP DP  RH WIND       PRES   REMARKS
GOODLAND KS    CLEAR     55  19  24 W12       30.21S
HILL CITY KS   CLEAR     63  14  15 W8        30.17F
IMPERIAL NEB     N/A     58  13  17 W12       30.17S
MCCOOK NEB     CLEAR     62  14  15 W9        30.15S
AKRON CO       CLEAR     53  16  23 NW10      30.20F
BURLINGTON CO  CLEAR     53  20  27 SW10      30.23S
LIMON CO       CLEAR     36  28  73 N5        30.25S
$$

...UNOFFICIAL OBSERVATIONS...

CITY           SKY/WX    TMP DP  RH WIND       PRES   REMARKS
COLBY KS       CLEAR     57  27  30 SW12      30.20S
GOVE KS          N/A     61  32  33 MISG        N/A
LENORA KS        N/A     60  32  34 S12         N/A
NORTON KS      CLEAR     59   7  12 W9        30.15S
SHARON SPRINGS   N/A     56  28  34 SW5         N/A
$$


USA.gov is the U.S. government's official web portal to all federal, state and local government web resources and services.